When you browse on this site, cookies collect data to enhance your experience and personalize the content and advertising you see.
Visit our Privacy Policy to learn more. By continuing to use the site, you agree to this use of cookies and data.
  • In Sweden
  • List of Countries
  • For 7 days
  • Water Temperature
  • Weather Map
  • Weather Widgets
  • user-avatar
    Login

    Hourly Weather Tordas

    Today, 17 October, Thursday

    Time Temperature Precipitation Wind Pressure Humidity
    00:00 +13°C° 0 mm 1 mps 750 mmHg 77%
    01:00 +12°C° 0 mm 1 mps 750 mmHg 74%
    02:00 +12°C° 0 mm 1 mps 750 mmHg 73%
    03:00 +12°C° 0 mm 1 mps 750 mmHg 73%
    04:00 +12°C° 0 mm 1 mps 750 mmHg 72%
    05:00 +12°C° 0 mm 1 mps 750 mmHg 70%
    06:00 +12°C° 0 mm 1 mps 750 mmHg 68%
    07:00 +12°C° 0 mm 0 mps 750 mmHg 63%
    08:00 +14°C° 0 mm 0 mps 751 mmHg 55%
    09:00 +16°C° 0 mm 0 mps 751 mmHg 47%
    10:00 +19°C° 0 mm 1 mps 751 mmHg 39%
    11:00 +20°C° 0 mm 1 mps 751 mmHg 39%
    12:00 +22°C° 0 mm 1 mps 750 mmHg 38%
    13:00 +23°C° 0 mm 1 mps 750 mmHg 38%
    14:00 +22°C° 0 mm 1 mps 750 mmHg 41%
    15:00 +22°C° 0 mm 1 mps 749 mmHg 45%
    16:00 +22°C° 0 mm 1 mps 749 mmHg 48%
    17:00 +20°C° 0 mm 1 mps 749 mmHg 52%
    18:00 +19°C° 0 mm 1 mps 749 mmHg 55%
    19:00 +18°C° 0 mm 1 mps 749 mmHg 59%
    20:00 +16°C° 0 mm 1 mps 749 mmHg 61%
    21:00 +16°C° 0 mm 1 mps 749 mmHg 63%
    22:00 +15°C° 0 mm 1 mps 750 mmHg 65%
    23:00 +15°C° 0 mm 1 mps 749 mmHg 67%

    Tomorrow, 18 October, Friday

    Time Temperature Precipitation Wind Pressure Humidity
    00:00 +15°C° 0 mm 1 mps 749 mmHg 70%
    01:00 +14°C° 0 mm 1 mps 749 mmHg 72%
    02:00 +14°C° 0 mm 1 mps 749 mmHg 73%
    03:00 +14°C° 0 mm 1 mps 748 mmHg 75%
    04:00 +14°C° 0 mm 1 mps 748 mmHg 77%
    05:00 +14°C° 0 mm 1 mps 748 mmHg 76%
    06:00 +14°C° 0 mm 1 mps 748 mmHg 76%
    07:00 +14°C° 0 mm 1 mps 749 mmHg 76%
    08:00 +16°C° 0 mm 1 mps 749 mmHg 69%
    09:00 +18°C° 0 mm 2 mps 749 mmHg 63%
    10:00 +19°C° 0 mm 2 mps 749 mmHg 56%
    11:00 +20°C° 0 mm 3 mps 748 mmHg 53%
    12:00 +22°C° 0 mm 3 mps 748 mmHg 49%
    13:00 +23°C° 0 mm 4 mps 747 mmHg 45%
    14:00 +22°C° 0 mm 3 mps 747 mmHg 46%
    15:00 +22°C° 0 mm 3 mps 747 mmHg 47%
    16:00 +21°C° 0 mm 3 mps 747 mmHg 48%
    17:00 +20°C° 0 mm 2 mps 747 mmHg 54%
    18:00 +19°C° 0 mm 2 mps 747 mmHg 59%
    19:00 +17°C° 0 mm 2 mps 747 mmHg 64%
    20:00 +17°C° 0 mm 2 mps 747 mmHg 65%
    21:00 +16°C° 0 mm 2 mps 747 mmHg 66%
    22:00 +16°C° 0 mm 1 mps 748 mmHg 67%
    23:00 +16°C° 0 mm 1 mps 748 mmHg 68%

    Day after tomorrow, 19 October, Saturday

    Time Temperature Precipitation Wind Pressure Humidity
    00:00 +15°C° 0 mm 1 mps 748 mmHg 70%
    01:00 +15°C° 0 mm 2 mps 748 mmHg 72%
    02:00 +14°C° 0 mm 2 mps 748 mmHg 75%
    03:00 +14°C° 0 mm 2 mps 748 mmHg 78%
    04:00 +13°C° 0 mm 2 mps 748 mmHg 81%
    05:00 +13°C° 0 mm 2 mps 748 mmHg 82%
    06:00 +13°C° 0 mm 2 mps 748 mmHg 83%
    07:00 +13°C° 0 mm 2 mps 748 mmHg 84%
    08:00 +15°C° 0 mm 2 mps 748 mmHg 74%
    09:00 +17°C° 0 mm 3 mps 748 mmHg 64%
    10:00 +19°C° 0 mm 3 mps 748 mmHg 55%
    11:00 +21°C° 0 mm 4 mps 748 mmHg 49%
    12:00 +22°C° 0 mm 5 mps 747 mmHg 43%
    13:00 +23°C° 0 mm 6 mps 747 mmHg 37%
    14:00 +23°C° 0 mm 5 mps 747 mmHg 39%
    15:00 +22°C° 0 mm 5 mps 746 mmHg 41%
    16:00 +22°C° 0 mm 4 mps 746 mmHg 43%
    17:00 +21°C° 0 mm 4 mps 746 mmHg 48%
    18:00 +19°C° 0 mm 3 mps 746 mmHg 52%
    19:00 +18°C° 0 mm 3 mps 747 mmHg 56%
    20:00 +18°C° 0 mm 3 mps 747 mmHg 57%
    21:00 +17°C° 0 mm 3 mps 747 mmHg 58%
    22:00 +17°C° 0 mm 3 mps 747 mmHg 59%
    23:00 +17°C° 0 mm 3 mps 747 mmHg 62%

    20 October, Sunday

    Time Temperature Precipitation Wind Pressure Humidity
    00:00 +15°C° 0 mm 4 mps 747 mmHg 65%
    01:00 +15°C° 0 mm 4 mps 747 mmHg 69%
    02:00 +16°C° 0 mm 3 mps 747 mmHg 72%
    03:00 +14°C° 0 mm 3 mps 747 mmHg 76%
    04:00 +14°C° 0 mm 3 mps 748 mmHg 80%
    05:00 +14°C° 0 mm 3 mps 748 mmHg 79%
    06:00 +14°C° 0 mm 3 mps 748 mmHg 79%
    07:00 +14°C° 0 mm 3 mps 748 mmHg 78%
    08:00 +17°C° 0 mm 4 mps 748 mmHg 70%
    09:00 +19°C° 0 mm 5 mps 748 mmHg 62%
    10:00 +22°C° 0 mm 5 mps 749 mmHg 53%
    11:00 +23°C° 0 mm 6 mps 748 mmHg 48%
    12:00 +24°C° 0 mm 6 mps 748 mmHg 43%
    13:00 +26°C° 0 mm 7 mps 748 mmHg 38%
    14:00 +24°C° 0 mm 6 mps 748 mmHg 40%
    15:00 +25°C° 0 mm 5 mps 747 mmHg 42%
    16:00 +23°C° 0 mm 5 mps 747 mmHg 43%
    17:00 +22°C° 0 mm 5 mps 747 mmHg 47%
    18:00 +21°C° 0 mm 4 mps 747 mmHg 52%
    19:00 +19°C° 0 mm 4 mps 747 mmHg 56%
    20:00 +19°C° 0 mm 4 mps 747 mmHg 57%
    21:00 +19°C° 0 mm 4 mps 748 mmHg 58%
    22:00 +18°C° 0 mm 4 mps 748 mmHg 60%
    23:00 +18°C° 0 mm 4 mps 748 mmHg 61%

    21 October, Monday

    Time Temperature Precipitation Wind Pressure Humidity
    00:00 +18°C° 0 mm 4 mps 747 mmHg 62%
    01:00 +16°C° 0 mm 5 mps 747 mmHg 63%
    02:00 +16°C° 0 mm 5 mps 747 mmHg 63%
    03:00 +16°C° 0 mm 5 mps 747 mmHg 64%
    04:00 +16°C° 0 mm 5 mps 747 mmHg 65%
    05:00 +16°C° 0 mm 5 mps 747 mmHg 64%
    06:00 +16°C° 0 mm 5 mps 747 mmHg 63%
    07:00 +16°C° 0 mm 5 mps 748 mmHg 62%
    08:00 +20°C° 0 mm 6 mps 748 mmHg 56%
    09:00 +22°C° 0 mm 6 mps 748 mmHg 49%
    10:00 +24°C° 0 mm 7 mps 748 mmHg 42%
    11:00 +26°C° 0 mm 7 mps 748 mmHg 41%
    12:00 +27°C° 0 mm 7 mps 748 mmHg 40%
    13:00 +27°C° 0 mm 7 mps 748 mmHg 39%
    14:00 +27°C° 0 mm 6 mps 748 mmHg 42%
    15:00 +26°C° 0 mm 5 mps 748 mmHg 45%
    16:00 +25°C° 0 mm 4 mps 748 mmHg 49%
    17:00 +23°C° 0 mm 4 mps 748 mmHg 55%
    18:00 +21°C° 0 mm 3 mps 749 mmHg 61%
    19:00 +20°C° 0 mm 3 mps 749 mmHg 66%
    20:00 +19°C° 0 mm 2 mps 749 mmHg 69%
    21:00 +19°C° 0 mm 2 mps 750 mmHg 72%
    22:00 +18°C° 0 mm 2 mps 750 mmHg 75%
    23:00 +18°C° 0 mm 2 mps 750 mmHg 76%

    22 October, Tuesday

    Time Temperature Precipitation Wind Pressure Humidity
    00:00 +17°C° 0 mm 2 mps 750 mmHg 76%
    01:00 +18°C° 0 mm 1 mps 750 mmHg 76%
    02:00 +16°C° 0 mm 1 mps 750 mmHg 77%
    03:00 +16°C° 0 mm 1 mps 751 mmHg 78%
    04:00 +15°C° 0 mm 1 mps 751 mmHg 78%
    05:00 +15°C° 0 mm 1 mps 751 mmHg 79%
    06:00 +15°C° 0 mm 1 mps 751 mmHg 80%
    07:00 +15°C° 0 mm 1 mps 752 mmHg 81%
    08:00 +18°C° 0 mm 1 mps 752 mmHg 74%
    09:00 +18°C° 0 mm 2 mps 752 mmHg 67%
    10:00 +20°C° 0 mm 2 mps 753 mmHg 60%
    11:00 +21°C° 0 mm 2 mps 753 mmHg 58%
    12:00 +23°C° 0 mm 2 mps 753 mmHg 55%
    13:00 +24°C° 0 mm 2 mps 753 mmHg 52%
    14:00 +23°C° 0 mm 2 mps 752 mmHg 54%
    15:00 +23°C° 0 mm 1 mps 752 mmHg 56%
    16:00 +22°C° 0 mm 1 mps 752 mmHg 58%
    17:00 +21°C° 0 mm 1 mps 752 mmHg 62%
    18:00 +20°C° 0 mm 1 mps 752 mmHg 65%
    19:00 +19°C° 0 mm 1 mps 752 mmHg 69%
    20:00 +19°C° 0 mm 1 mps 752 mmHg 71%
    21:00 +18°C° 0 mm 1 mps 753 mmHg 73%
    22:00 +17°C° 0 mm 2 mps 753 mmHg 74%
    23:00 +16°C° 0 mm 2 mps 753 mmHg 75%
    Show more